Location: Aytr�
(46.1357°N, 1.1145°W)
Time: 01:20:56
(UTC+00:00)

Nauka - Pass Details

Date: 19 September 2021
Orbit: 417 x 423 km, 51.6° (Epoch: 19 October)

Event Time Altitude Azimuth Distance (km) Brightness Sun altitude
Rises 19:32:21 0° 245° (WSW) 2,354 ? -15.2°
Reaches altitude 10° 19:34:27 10° 247° (WSW) 1,494 ? -15.6°
Maximum altitude 19:37:48 78° 334° (NNW) 432 ? -16.1°
Enters shadow 19:39:25 28° 57° (ENE) 816 ? -16.4°
